Weather History for Nebraska City, NE

Change the Weather History Date:

Monday, January 14, 2013

  Actual Average (KSDA) Record (KSDA)
Temperature  
Mean Temperature 18 °F -  
Max Temperature 29 °F 31 °F 61 °F (1952)
Min Temperature 8 °F 12 °F -14 °F (1957)
Degree Days  
Heating Degree Days 46    
Moisture  
Dew Point 7 °F    
Average Humidity 63    
Maximum Humidity 80    
Minimum Humidity 38    
Precipitation  
Precipitation 0.00 in - - ()
Sea Level Pressure  
Sea Level Pressure 30.38 in    
Wind  
Wind Speed 1 mph (WSW)    
Max Wind Speed 10 mph    
Max Gust Speed -    
Visibility 10 miles    
Events      
Averages and records for this station are not official NWS values.
T = Trace of Precipitation, MM = Missing Value Source: NWS Daily Summary

Daily Weather History Graph

Daily Weather History Graph

Search for Another Location

Airport:

Trip Planner

Search our weather history database for the weather conditions in past years. The results will help you decide how hot, cold, wet, or windy it might be!

Date:

Astronomy

Jan. 14, 2013 Rise Set
Actual Time 7:45 AM CST 5:20 PM CST
Civil Twilight 7:15 AM CST 5:50 PM CST
Nautical Twilight 6:41 AM CST 6:24 PM CST
Astronomical Twilight 6:08 AM CST 6:56 PM CST
Moon 9:18 AM CST (1/14) 9:08 PM CST (1/14)
Length of Visible Light 10h 35m
Length of Day
9h 34m
Waxing Crescent, 11% of the Moon is Illuminated
Jan 14
Waxing Crescent
Jan 18
First Quarter
Jan 26
Full
Feb 3
Last Quarter
Feb 10
New

Hourly Weather History & Observations

Time (CST) Temp. Windchill Dew Point Humidity Pressure Visibility Wind Dir Wind Speed Gust Speed Precip Events Conditions
12:15 AM 11.8 °F - 4.1 °F 71% 30.34 in 10.0 mi Calm Calm - N/A   Clear
12:35 AM 11.8 °F - 4.1 °F 71% 30.34 in 10.0 mi Calm Calm - N/A   Clear
12:55 AM 12.6 °F - 4.5 °F 70% 30.34 in 10.0 mi Calm Calm - N/A   Clear
1:15 AM 11.8 °F - 4.1 °F 71% 30.34 in 10.0 mi Calm Calm - N/A   Clear
1:35 AM 12.4 °F - 4.5 °F 71% 30.35 in 10.0 mi Calm Calm - N/A   Clear
1:55 AM 11.7 °F - 4.1 °F 72% 30.36 in 10.0 mi Calm Calm - N/A   Clear
2:15 AM 11.3 °F - 4.1 °F 73% 30.37 in 10.0 mi Calm Calm - N/A   Clear
2:55 AM 10.2 °F - 3.7 °F 75% 30.38 in 10.0 mi Calm Calm - N/A   Clear
3:15 AM 9.5 °F - 3.7 °F 77% 30.39 in 10.0 mi Calm Calm - N/A   Clear
3:35 AM 9.7 °F - 3.7 °F 77% 30.38 in 10.0 mi Calm Calm - N/A   Clear
3:55 AM 9.5 °F - 3.2 °F 76% 30.38 in 10.0 mi Calm Calm - N/A   Clear
4:15 AM 10.0 °F - 3.7 °F 76% 30.38 in 10.0 mi Calm Calm - N/A   Clear
4:35 AM 9.0 °F - 3.6 °F 79% 30.37 in 10.0 mi Calm Calm - N/A   Clear
4:55 AM 10.9 °F 0.2 °F 4.3 °F 75% 30.37 in 10.0 mi WSW 6.9 mph - N/A   Clear
5:15 AM 8.6 °F - 3.4 °F 79% 30.38 in 10.0 mi Calm Calm - N/A   Clear
5:35 AM 9.0 °F - 3.6 °F 79% 30.39 in 10.0 mi Calm Calm - N/A   Clear
6:15 AM 9.5 °F - 3.7 °F 77% 30.40 in 10.0 mi Calm Calm - N/A   Clear
6:35 AM 8.4 °F - 3.2 °F 79% 30.40 in 10.0 mi Calm Calm - N/A   Clear
6:55 AM 8.4 °F - 3.2 °F 79% 30.41 in 10.0 mi Calm Calm - N/A   Clear
7:15 AM 8.6 °F - 3.6 °F 80% 30.41 in 10.0 mi Calm Calm - N/A   Clear
7:35 AM 9.9 °F - 3.9 °F 77% 30.42 in 10.0 mi Calm Calm - N/A   Clear
7:55 AM 9.0 °F -5.1 °F 3.6 °F 79% 30.43 in 10.0 mi West 10.4 mph - N/A   Clear
8:15 AM 9.5 °F -3.5 °F 4.3 °F 79% 30.43 in 10.0 mi West 9.2 mph - N/A   Clear
8:35 AM 11.5 °F - 5.9 °F 78% 30.44 in 10.0 mi Calm Calm - N/A   Clear
8:55 AM 13.3 °F - 7.9 °F 79% 30.45 in 10.0 mi Calm Calm - N/A   Clear
9:15 AM 15.6 °F 8.3 °F 9.3 °F 76% 30.46 in 10.0 mi West 4.6 mph - N/A   Clear
9:35 AM 17.8 °F 8.5 °F 10.8 °F 74% 30.46 in 10.0 mi West 6.9 mph - N/A   Clear
9:55 AM 19.4 °F - 11.8 °F 72% 30.47 in 10.0 mi Calm Calm - N/A   Clear
10:15 AM 21.0 °F - 12.6 °F 70% 30.47 in 10.0 mi Calm Calm - N/A   Clear
10:35 AM 22.5 °F - 13.5 °F 68% 30.46 in 10.0 mi Calm Calm - N/A   Clear
10:55 AM 23.2 °F - 12.2 °F 63% 30.46 in 10.0 mi Calm Calm - N/A   Clear
11:35 AM 25.7 °F - 11.3 °F 55% 30.44 in 10.0 mi Calm Calm - N/A   Clear
11:55 AM 26.2 °F 19.6 °F 10.6 °F 52% 30.42 in 10.0 mi SW 5.8 mph - N/A   Clear
12:15 PM 27.1 °F - 11.3 °F 51% 30.41 in 10.0 mi Calm Calm - N/A   Clear
12:35 PM 27.0 °F - 11.3 °F 52% 30.39 in 10.0 mi Calm Calm - N/A   Clear
12:55 PM 27.5 °F - 9.3 °F 46% 30.38 in 10.0 mi Calm Calm - N/A   Clear
1:15 PM 28.0 °F - 7.9 °F 43% 30.37 in 10.0 mi Calm Calm - N/A   Clear
1:35 PM 28.6 °F - 7.7 °F 41% 30.36 in 10.0 mi Calm Calm - N/A   Clear
1:55 PM 29.3 °F - 8.8 °F 42% 30.36 in 10.0 mi Calm Calm - N/A   Clear
2:15 PM 29.3 °F - 7.2 °F 39% 30.36 in 10.0 mi Calm Calm - N/A   Clear
2:35 PM 29.5 °F - 8.4 °F 41% 30.36 in 10.0 mi Calm Calm - N/A   Clear
2:55 PM 29.5 °F - 8.1 °F 41% 30.36 in 10.0 mi Calm Calm - N/A   Clear
3:15 PM 29.7 °F - 7.0 °F 38% 30.36 in 10.0 mi Calm Calm - N/A   Clear
3:35 PM 29.1 °F - 7.9 °F 41% 30.36 in 10.0 mi Calm Calm - N/A   Clear
4:15 PM 28.9 °F - 8.6 °F 42% 30.36 in 10.0 mi Calm Calm - N/A   Clear
4:35 PM 28.4 °F - 8.6 °F 43% 30.36 in 10.0 mi Calm Calm - N/A   Clear
4:55 PM 27.9 °F - 9.5 °F 46% 30.36 in 10.0 mi Calm Calm - N/A   Clear
5:15 PM 26.6 °F - 9.3 °F 48% 30.36 in 10.0 mi Calm Calm - N/A   Clear
5:35 PM 25.5 °F - 9.1 °F 50% 30.36 in 10.0 mi Calm Calm - N/A   Clear
5:55 PM 25.2 °F - 9.3 °F 51% 30.36 in 10.0 mi Calm Calm - N/A   Clear
6:15 PM 23.9 °F - 9.1 °F 53% 30.37 in 10.0 mi Calm Calm - N/A   Clear
6:35 PM 23.7 °F - 9.0 °F 53% 30.37 in 10.0 mi Calm Calm - N/A   Clear
6:55 PM 23.0 °F - 8.6 °F 54% 30.37 in 10.0 mi Calm Calm - N/A   Scattered Clouds
7:15 PM 23.7 °F - 9.0 °F 53% 30.37 in 10.0 mi Calm Calm - N/A   Scattered Clouds
7:35 PM 23.0 °F - 9.3 °F 56% 30.37 in 10.0 mi Calm Calm - N/A   Clear
7:55 PM 22.5 °F - 9.1 °F 57% 30.37 in 10.0 mi Calm Calm - N/A   Clear
8:15 PM 20.3 °F - 9.5 °F 63% 30.37 in 10.0 mi Calm Calm - N/A   Clear
8:35 PM 21.4 °F - 9.1 °F 59% 30.37 in 10.0 mi Calm Calm - N/A   Clear
8:55 PM 21.6 °F - 8.8 °F 58% 30.36 in 10.0 mi Calm Calm - N/A   Clear
9:15 PM 19.8 °F - 9.0 °F 63% 30.36 in 10.0 mi Calm Calm - N/A   Clear
9:35 PM 19.9 °F - 9.1 °F 63% 30.36 in 10.0 mi Calm Calm - N/A   Clear
9:55 PM 18.9 °F - 9.5 °F 67% 30.36 in 10.0 mi Calm Calm - N/A   Scattered Clouds
10:15 PM 19.2 °F - 9.5 °F 66% 30.36 in 10.0 mi Calm Calm - N/A   Scattered Clouds
10:35 PM 18.7 °F - 9.1 °F 66% 30.36 in 10.0 mi Calm Calm - N/A   Clear
10:55 PM 18.1 °F - 8.6 °F 66% 30.36 in 10.0 mi Calm Calm - N/A   Scattered Clouds
11:15 PM 18.1 °F - 8.6 °F 66% 30.36 in 10.0 mi Calm Calm - N/A   Scattered Clouds
11:35 PM 17.4 °F - 8.4 °F 68% 30.36 in 10.0 mi Calm Calm - N/A   Clear
11:55 PM 17.2 °F - 9.0 °F 70% 30.36 in 10.0 mi Calm Calm - N/A   Clear